Location: Byhalia Creek
(34.8270°N, 89.8040°W)
Time: 20:58:53
(UTC+00:00)

Cosmos 2360 Rocket - Pass Details

Date: 22 April 2026
Orbit: 831 x 845 km, 71.0° (Epoch: 21 May)

Event Time Altitude Azimuth Distance (km) Brightness Sun altitude
Rises 09:19:26 0° 333° (NNW) 3,407 5.5 -22.9°
Reaches altitude 10° 09:21:56 10° 328° (NNW) 2,469 4.6 -22.5°
Maximum altitude 09:27:24 52° 254° (WSW) 1,041 2.3 -21.6°
Enters shadow 09:29:12 38° 203° (SSW) 1,271 2.7 -21.3°
